Location: Vihti�l�
(61.3833°N, 23.0667°E)
Time: 05:20:56
(UTC+00:00)

ATLAS CENTAUR R/B - Pass Details

Date: 29 November 2020
Orbit: 477 x 668 km, 64.7° (Epoch: 12 January)

Event Time Altitude Azimuth Distance (km) Brightness Sun altitude
Exits shadow 04:32:33 12° 219° (SW) 1,601 3.4 -16.9°
Drops below altitude 10° 04:33:11 10° 210° (SSW) 1,718 3.7 -16.8°
Sets 04:36:18 0° 183° (S) 2,637 5.0 -16.5°
